This demonstration page uses our WeatherBlox Daily Observations layout. Learn more.

38.89511, -77.03637

Hourly Observations for October 4, 2015

Temp ( °F °C ) Dew Point ( °F °C ) Humidity (%) Winds ( mph kmh ) Pressure ( in mb ) Visibility ( mi km ) Precip ( " mm )
12:52 am 00:52 Cloudy with Mist and Fog 56 13.3 54 12.2 93 93 NE 17 28 30.18 1022 3 4.82802 0 0.0254
1:52 am 01:52 Cloudy 56 13.3 54 12.2 93 93 NE 16 26 30.17 1022 7 11.26538 0 0
2:52 am 02:52 Cloudy with Light Drizzle 55 12.8 54 12.2 96 96 NNE 13 20 30.18 1022 8 12.87472 0 0.0254
3:52 am 03:52 Cloudy 56 13.3 54 12.2 93 93 NE 17 28 30.17 1022 10 16.0934 0 0.0254
4:52 am 04:52 Cloudy 56 13.3 54 12.2 93 93 NNE 14 22 30.17 1022 10 16.0934 0 0
5:52 am 05:52 Cloudy 57 13.9 54 12.2 90 90 NE 20 31 30.18 1022 10 16.0934 0 0.0254
6:52 am 06:52 Cloudy 57 13.9 54 12.2 90 90 NE 20 31 30.18 1022 10 16.0934 0 0
7:52 am 07:52 Cloudy 57 13.9 53 11.7 87 87 NE 18 30 30.19 1022 10 16.0934 0 0.0254
8:52 am 08:52 Cloudy 57 13.9 53 11.7 87 87 NE 16 26 30.19 1023 10 16.0934 0 0
9:52 am 09:52 Cloudy 57 13.9 53 11.7 87 87 NE 17 28 30.21 1023 10 16.0934 0 0
10:22 am 10:22 Cloudy 57 14 54 12 88 88 NNE 17 28 30.21 1023 10 16.0934 0 0
10:52 am 10:52 Cloudy 57 13.9 53 11.7 87 87 NE 16 26 30.21 1023 10 16.0934 0 0
11:52 am 11:52 Cloudy 58 14.4 53 11.7 84 84 NE 14 22 30.21 1023 10 16.0934 0 0
12:52 pm 12:52 Cloudy 59 15 53 11.7 81 81 NNE 16 26 30.21 1023 10 16.0934 0 0
1:52 pm 13:52 Cloudy 59 15 53 11.7 81 81 NNE 21 33 30.19 1022 10 16.0934 0 0
2:52 pm 14:52 Cloudy 57 13.9 52 11.1 83 83 NE 23 37 30.17 1022 10 16.0934 0 0
3:52 pm 15:52 Cloudy 59 15 52 11.1 78 78 NE 16 26 30.17 1022 10 16.0934 0 0
4:22 pm 16:22 Cloudy 59 15 52 11 77 77 NNE 18 30 30.18 1022 10 16.0934 0 0
4:52 pm 16:52 Cloudy 59 15 51 10.6 75 75 NE 17 28 30.16 1021 10 16.0934 0 0
5:52 pm 17:52 Cloudy 58 14.4 50 10 75 75 NNE 16 26 30.18 1022 10 16.0934 0 0
6:52 pm 18:52 Cloudy 58 14.4 50 10 75 75 NNE 12 19 30.19 1022 10 16.0934 0 0
7:52 pm 19:52 Cloudy 58 14.4 49 9.4 72 72 NNE 12 19 30.19 1023 10 16.0934 0 0
8:38 pm 20:38 Cloudy 57 14 48 9 72 72 NNE 15 24 30.18 1022 10 16.0934 0 0
8:52 pm 20:52 Cloudy 57 13.9 49 9.4 74 74 N 10 17 30.2 1023 10 16.0934 0 0
9:52 pm 21:52 Cloudy 56 13.3 48 8.9 75 75 N 14 22 30.2 1023 10 16.0934 0 0
10:52 pm 22:52 Cloudy 55 12.8 48 8.9 77 77 N 10 17 30.2 1023 10 16.0934 0 0
11:52 pm 23:52 Cloudy 55 12.8 48 8.9 77 77 NNE 9 15 30.19 1022 10 16.0934 0 0

Powered by AerisWeather